Home > Weather > Kufstein > Past weeks

Flag for Austria Past Weather in Kufstein, Tyrol, Austria — Yesterday and Last 2 Weeks

Now
67 °F

Mild.


Feels Like: 67 °F
Forecast: 54 / 85 °F
Wind: 2 mph from Southwest

Location: Kufstein

Current Time: Aug 24, 2016 at 10:55:29 AM

Latest Report: Aug 24, 2016 at 10:00 AM


Visibility: N/A

Pressure: 30.25 "Hg

Humidity: 71%

Dew Point: 57 °F

Location of KufsteinLocation

Past Weather in Kufstein — Graph

°F

Kufstein Temperature Yesterday

Maximum temperature yesterday: 77 °F (at 5:00 PM)
Minimum temperature yesterday: 50 °F (at 7:00 AM)
Average temperature yesterday: 63 °F

High & Low Weather Summary for the Past Weeks

 TemperatureHumidityPressure
High82 °F (Aug 20, 3:00 PM)97% (Aug 13, 2:00 AM)30.47 "Hg (Aug 13, 2:00 AM)
Low49 °F (Aug 12, 1:00 AM)48% (Aug 16, 4:00 PM)29.79 "Hg (Aug 18, 2:00 PM)
Average63 °F80%30.12 "Hg
* Reported Aug 9 9:00 AM — Aug 24 9:00 AM, Kufstein, Weather by CustomWeather, © 2016

Note: Actual official high and low records may vary slightly from our data, if they occured in-between our weather recording intervals... More about our weather records

Advertising

Kufstein Weather History for the Previous 24 Hours

Scroll right to see more
 ConditionsComfort  
Time TempWeatherWind HumidityBarometerVisibility
9:00 AM
Wed, Aug 24
62 °FCool.1 mph82%30.28 "HgN/A
8:00 AM55 °FCool.1 mph93%30.32 "HgN/A
7:00 AM55 °FCool.1 mph94%30.32 "HgN/A
6:00 AM56 °FCool.1 mph94%30.31 "HgN/A
5:00 AM56 °FCool.1 mph94%30.31 "HgN/A
4:00 AM56 °FCool.No wind94%30.32 "HgN/A
3:00 AM57 °FCool.1 mph94%30.32 "HgN/A
2:00 AM58 °FCool.No wind93%30.32 "HgN/A
9:00 PM
Tue, Aug 23
68 °FMild.2 mph71%30.29 "HgN/A
8:00 PM71 °FMild.2 mph60%30.26 "HgN/A
7:00 PM75 °FMild.2 mph54%30.23 "HgN/A
6:00 PM77 °FMild.2 mph53%30.23 "HgN/A
5:00 PM77 °FMild.3 mph52%30.24 "HgN/A
4:00 PM77 °FMild.3 mph52%30.25 "HgN/A
3:00 PM75 °FMild.3 mph48%30.27 "HgN/A
2:00 PM74 °FMild.1 mph48%30.29 "HgN/A
1:00 PM71 °FMild.1 mph49%30.32 "HgN/A
12:00 PM68 °FMild.1 mph57%30.36 "HgN/A
11:00 AM66 °FMild.1 mph63%30.39 "HgN/A
10:00 AM61 °FCool.2 mph70%30.42 "HgN/A
Weather by CustomWeather, © 2016

See weather overviewHow to use our weather pages